This demonstration page uses our WeatherBlox Daily Observations layout. Learn more.

Left ArrowRight Arrow

Hourly Observations for September 7, 2016

Temp ( °F °C ) Dew Point ( °F °C ) Humidity (%) Winds ( mph kmh ) Pressure ( in mb ) Visibility ( mi km ) Precip ( " mm )
12:51 am 00:51 Mostly Cloudy with Light Rain 71 21.7 67 19.4 87 87 ESE 6 9 29.89 1012 10 16.0934 0.01 0.254
1:51 am 01:51 Clear 71 21.7 67 19.4 87 87 S 9 15 29.89 1012 10 16.0934 0 0.0254
2:51 am 02:51 Partly Cloudy 71 21.7 66 18.9 84 84 SE 6 9 29.88 1012 10 16.0934 0 0
3:51 am 03:51 Mostly Cloudy 70 21.1 66 18.9 87 87 S 12 19 29.9 1013 10 16.0934 0 0.0254
4:51 am 04:51 Partly Cloudy with Light Rain 68 20 65 18.3 90 90 SE 6 9 29.91 1013 10 16.0934 0.02 0.508
5:51 am 05:51 Cloudy 67 19.4 64 17.8 91 91 ESE 7 11 29.9 1013 10 16.0934 0 0.0254
6:51 am 06:51 Cloudy 68 20 64 17.8 87 87 SE 8 13 29.93 1014 10 16.0934 0 0
7:51 am 07:51 Cloudy with Light Rain 68 20 65 18.3 90 90 ESE 5 7 29.95 1014 3 4.82802 0.04 1.016
8:42 am 08:42 Cloudy with Light Rain 67 19.4 66 18.9 97 97 Calm 30 1016 4 6.43736 0.09 2.286
8:51 am 08:51 Cloudy with Light Rain 67 19.4 65 18.3 93 93 Calm 29.97 1015 4 6.43736 0.1 2.54
9:41 am 09:41 Cloudy with Rain 67 19.4 65 18.3 93 93 SE 3 6 30 1016 2 3.21868 0.11 2.794
9:51 am 09:51 Cloudy with Light Rain 67 19.4 66 18.9 97 97 SSE 3 6 29.98 1015 2.5 4.02335 0.14 3.556
10:01 am 10:01 Cloudy with Light Rain 67 19.4 66 18.9 97 97 SE 3 6 30 1016 3 4.82802 0.03 0.762
10:51 am 10:51 Cloudy with Light Rain 69 20.6 67 19.4 93 93 E 6 9 29.96 1014 5 8.0467 0.09 2.286
11:51 am 11:51 Cloudy with Rain 69 20.6 65 18.3 87 87 E 12 19 29.94 1014 3 4.82802 0.14 3.556
12:21 pm 12:21 Cloudy with Rain 69 20.6 66 18.9 90 90 E 7 11 29.91 1013 2.5 4.02335 0.12 3.048
12:51 pm 12:51 Cloudy with Light Rain 69 20.6 65 18.3 87 87 ENE 9 15 29.94 1014 3 4.82802 0.25 6.35
1:05 pm 13:05 Cloudy with Rain 69 20.6 65 18.3 87 87 ENE 12 19 29.91 1013 1.75 2.816345 0.03 0.762
1:32 pm 13:32 Cloudy with Light Rain 68 20 65 18.3 90 90 NE 13 20 29.91 1013 3 4.82802 0.16 4.064
1:51 pm 13:51 Cloudy with Light Rain 69 20.6 65 18.3 87 87 NNE 10 17 29.93 1013 6 9.65604 0.17 4.318
2:04 pm 14:04 Cloudy with Light Rain 69 20.6 66 18.9 90 90 SW 8 13 29.91 1013 3 4.82802 0.01 0.254
2:06 pm 14:06 Cloudy with Rain 68 20 67 19.4 96 96 S 7 11 29.88 1012 2 3.21868 0.02 0.508
2:13 pm 14:13 Cloudy with Rain 68 20 67 19.4 96 96 W 7 11 29.88 1012 1 1.60934 0.06 1.524
2:21 pm 14:21 Cloudy with Light Rain 67 19.4 66 18.9 97 97 W 6 9 29.91 1013 1 1.60934 0.09 2.286
2:23 pm 14:23 Cloudy with Heavy Rain 67 19.4 66 18.9 97 97 W 6 9 29.91 1013 0.75 1.207005 0.12 3.048
2:29 pm 14:29 Cloudy with Light Rain 67 19.4 66 18.9 97 97 NNW 3 6 29.91 1013 1 1.60934 0.15 3.81
2:51 pm 14:51 Cloudy with Light Rain 68 20 66 18.9 93 93 NW 5 7 29.91 1013 1.75 2.816345 0.22 5.588
2:58 pm 14:58 Cloudy with Light Rain 68 20 66 18.9 93 93 NW 5 7 29.88 1012 2.5 4.02335 0.01 0.254
3:05 pm 15:05 Cloudy with Light Rain 68 20 66 18.9 93 93 WNW 3 6 29.88 1012 1.75 2.816345 0.02 0.508
3:11 pm 15:11 Cloudy with Light Rain 68 20 66 19 94 94 Calm 29.88 1012 3 4.82802 0 0
3:25 pm 15:25 Cloudy with Light Rain 69 20.6 66 18.9 90 90 ESE 6 9 29.88 1012 2.5 4.02335 0.03 0.762
3:49 pm 15:49 Cloudy with Light Rain 70 21 66 19 88 88 ENE 9 15 29.88 1012 3 4.82802 0.05 1.27
3:51 pm 15:51 Cloudy with Light Rain 69 20.6 66 18.9 90 90 ENE 9 15 29.91 1013 4 6.43736 0.05 1.27
4:30 pm 16:30 Cloudy with Light Rain 69 20.6 66 18.9 90 90 E 9 15 29.88 1012 2.5 4.02335 0.02 0.508
4:34 pm 16:34 Cloudy with Light Rain 69 20.6 67 19.4 93 93 E 7 11 29.88 1012 3 4.82802 0.02 0.508
4:51 pm 16:51 Cloudy with Light Rain 70 21.1 67 19.4 90 90 NE 9 15 29.91 1013 5 8.0467 0.02 0.508
5:51 pm 17:51 Cloudy with Light Rain 69 20.6 68 20 96 96 WSW 6 9 29.91 1013 10 16.0934 0.03 0.762
6:15 pm 18:15 Cloudy with Mist and Fog 68 20 67 19.4 96 96 WNW 7 11 29.88 1012 4 6.43736 0 0.0254
6:32 pm 18:32 Cloudy with Rain 68 20 67 19.4 96 96 WNW 8 13 29.88 1012 2.5 4.02335 0.02 0.508
6:51 pm 18:51 Cloudy with Heavy Rain 68 20 67 19.4 96 96 W 7 11 29.92 1013 1.5 2.41401 0.12 3.048
7:06 pm 19:06 Cloudy with Heavy Rain 68 20 67 19.4 96 96 NW 6 9 29.88 1012 0.75 1.207005 0.19 4.826
7:15 pm 19:15 Cloudy with Heavy Rain 68 20 67 19.4 96 96 NW 5 7 29.88 1012 1 1.60934 0.28 7.112
7:46 pm 19:46 Cloudy with Rain 66 19 64 18 94 94 NE 8 13 29.91 1013 2.5 4.02335 0.56 14.224
7:51 pm 19:51 Cloudy with Light Rain 66 18.9 64 17.8 93 93 ENE 7 11 29.94 1014 4 6.43736 0.57 14.478
8:36 pm 20:36 Cloudy with Light Rain 69 20.6 61 16.1 76 76 ESE 7 11 29.91 1013 9 14.48406 0.03 0.762
8:51 pm 20:51 Cloudy with Light Rain 68 20 62 16.7 81 81 ENE 6 9 29.96 1015 10 16.0934 0.03 0.762
9:51 pm 21:51 Cloudy with Light Rain 65 18.3 65 18.3 100 100 WNW 10 17 29.98 1015 4 6.43736 0.05 1.27
10:29 pm 22:29 Cloudy with Rain 65 18.3 64 17.8 97 97 WNW 10 17 29.97 1015 5 8.0467 0.02 0.508
10:51 pm 22:51 Cloudy with Light Rain 65 18.3 64 17.8 97 97 WNW 12 19 29.98 1015 8 12.87472 0.04 1.016
11:51 pm 23:51 Cloudy 65 18.3 64 17.8 97 97 NW 9 15 29.99 1016 10 16.0934 0.01 0.254

Powered by AerisWeather